Location: Unspecified
(58.7730°N, 5.8460°E)
Time: 22:04:21
(UTC+02:00)

Okean 3 - Visible Passes

Search period start: 30 March 2015 00:00
Search period end: 09 April 2015 00:00
Orbit: 580 x 607 km, 82.5° (Epoch: 30 March)

Date Brightness Start Highest point End Pass type
(mag) Time Alt. Az. Time Alt. Az. Time Alt. Az.
30 Mar 5.6 01:07:10 18° ENE 01:07:10 18° ENE 01:09:06 10° NE visible
30 Mar 4.1 02:43:47 52° NNW 02:43:47 52° NNW 02:47:09 10° N visible
30 Mar 5.6 04:20:24 14° WNW 04:21:11 15° NW 04:23:31 10° NNW visible
31 Mar 5.3 01:16:22 23° ENE 01:16:22 23° ENE 01:18:46 10° NNE visible
31 Mar 4.2 02:52:59 45° NW 02:52:59 45° NW 02:56:29 10° N visible
31 Mar 5.8 04:29:35 10° WNW 04:30:50 11° NW 04:32:15 10° NNW visible
01 Apr 4.9 01:25:32 31° ENE 01:25:32 31° ENE 01:28:19 10° NNE visible
01 Apr 4.5 03:02:09 36° NW 03:02:09 36° NW 03:05:45 10° N visible
02 Apr 4.5 01:34:42 40° NE 01:34:42 40° NE 01:37:48 10° NNE visible
02 Apr 4.8 03:11:19 28° WNW 03:11:19 28° WNW 03:14:59 10° N visible
03 Apr 5.9 00:07:14 12° ENE 00:07:14 12° ENE 00:08:09 10° NE visible
03 Apr 4.0 01:43:51 53° NE 01:43:51 53° NE 01:47:13 10° NNE visible
03 Apr 5.2 03:20:28 22° WNW 03:20:51 22° WNW 03:24:09 10° N visible
04 Apr 5.6 00:16:22 16° ENE 00:16:22 16° ENE 00:18:14 10° NE visible
04 Apr 3.8 01:52:59 64° N 01:52:59 64° N 01:56:35 10° NNE visible
04 Apr 5.5 03:29:35 17° WNW 03:30:25 17° NW 03:33:13 10° NNW visible
05 Apr 5.2 00:25:29 21° ENE 00:25:29 21° ENE 00:27:59 10° NE visible
05 Apr 3.8 02:02:06 59° NW 02:02:06 59° NW 02:05:55 10° N visible
05 Apr 5.8 03:38:42 12° WNW 03:40:01 14° NW 03:42:09 10° NNW visible
06 Apr 4.8 00:34:35 28° ENE 00:34:35 28° ENE 00:37:34 10° NNE visible
06 Apr 4.1 02:11:12 46° WNW 02:11:12 46° WNW 02:15:12 10° N visible
06 Apr 6.0 03:48:32 10° WNW 03:49:39 11° NW 03:50:39 10° NNW visible
07 Apr 4.4 00:43:40 38° ENE 00:43:40 38° ENE 00:47:04 10° NNE visible
07 Apr 4.5 02:20:17 34° WNW 02:20:33 34° WNW 02:24:26 10° N visible
08 Apr 3.8 00:52:44 52° ENE 00:52:44 52° ENE 00:56:29 10° NNE visible
08 Apr 5.0 02:29:20 25° WNW 02:30:01 26° WNW 02:33:36 10° N visible
08 Apr 5.6 23:25:11 13° ENE 23:25:11 13° ENE 23:27:04 10° NE visible
